TimeEST,TemperatureF,Dew PointF,Humidity,Sea Level PressureIn,VisibilityMPH,Wind Direction,Wind SpeedMPH,Gust SpeedMPH,PrecipitationIn,Events,Conditions,WindDirDegrees,DateUTC
12:06 AM,46.4,44.6,93,29.94,10.0,SW,8.1,18.4,N/A,,Overcast,230,2012-12-03 05:06:00
12:51 AM,48.0,44.1,86,29.99,10.0,SW,6.9,-,N/A,,Overcast,220,2012-12-03 05:51:00
1:07 AM,48.2,44.6,87,29.96,10.0,Variable,6.9,-,N/A,,Overcast,0,2012-12-03 06:07:00
1:51 AM,48.0,44.1,86,30.00,10.0,WSW,6.9,-,N/A,,Overcast,240,2012-12-03 06:51:00
2:38 AM,48.2,44.6,87,29.99,10.0,WSW,4.6,-,N/A,,Overcast,250,2012-12-03 07:38:00
2:51 AM,48.9,44.1,83,30.02,10.0,SW,5.8,-,N/A,,Overcast,220,2012-12-03 07:51:00
3:51 AM,48.0,42.1,80,30.06,10.0,West,8.1,-,N/A,,Overcast,280,2012-12-03 08:51:00
3:59 AM,48.2,42.8,82,30.03,10.0,West,10.4,16.1,N/A,,Overcast,260,2012-12-03 08:59:00
4:17 AM,46.4,42.8,87,30.04,10.0,West,8.1,-,N/A,,Overcast,270,2012-12-03 09:17:00
4:37 AM,46.4,41.0,81,30.05,10.0,West,6.9,-,N/A,,Overcast,260,2012-12-03 09:37:00
4:51 AM,46.9,41.0,80,30.08,10.0,West,4.6,-,N/A,,Overcast,270,2012-12-03 09:51:00
5:51 AM,44.1,39.9,85,30.11,10.0,NW,18.4,27.6,0.01,,Overcast,310,2012-12-03 10:51:00
6:51 AM,42.1,39.0,89,30.14,10.0,NW,17.3,24.2,N/A,,Mostly Cloudy,310,2012-12-03 11:51:00
7:25 AM,41.0,37.4,87,30.14,10.0,NW,12.7,19.6,N/A,,Overcast,310,2012-12-03 12:25:00
7:51 AM,39.9,37.0,89,30.19,10.0,NW,15.0,21.9,N/A,,Mostly Cloudy,310,2012-12-03 12:51:00
8:51 AM,39.9,37.0,89,30.22,10.0,NW,11.5,-,N/A,,Overcast,310,2012-12-03 13:51:00
9:51 AM,37.9,35.1,89,30.26,10.0,NNW,6.9,-,N/A,,Overcast,330,2012-12-03 14:51:00
10:51 AM,37.9,34.0,86,30.26,10.0,North,3.5,-,N/A,,Overcast,350,2012-12-03 15:51:00
11:51 AM,37.9,33.1,83,30.26,10.0,NNW,8.1,19.6,N/A,,Mostly Cloudy,340,2012-12-03 16:51:00
12:14 PM,37.4,33.8,87,30.23,10.0,NNW,6.9,-,N/A,,Mostly Cloudy,330,2012-12-03 17:14:00
12:51 PM,39.0,33.1,79,30.26,10.0,North,5.8,-,N/A,,Mostly Cloudy,350,2012-12-03 17:51:00
1:41 PM,37.4,33.8,87,30.23,10.0,ENE,5.8,-,N/A,,Overcast,60,2012-12-03 18:41:00
1:51 PM,37.0,34.0,89,30.27,10.0,NE,5.8,-,N/A,,Overcast,40,2012-12-03 18:51:00
2:51 PM,37.0,34.0,89,30.29,10.0,Calm,Calm,-,N/A,,Overcast,0,2012-12-03 19:51:00
3:51 PM,36.0,33.1,89,30.30,10.0,NNE,3.5,-,N/A,,Overcast,30,2012-12-03 20:51:00
4:51 PM,35.1,33.1,92,30.29,10.0,North,3.5,-,N/A,,Overcast,10,2012-12-03 21:51:00
5:51 PM,36.0,33.1,89,30.30,10.0,Calm,Calm,-,N/A,,Overcast,0,2012-12-03 22:51:00
6:51 PM,36.0,33.1,89,30.30,10.0,Calm,Calm,-,N/A,,Overcast,0,2012-12-03 23:51:00
7:10 PM,35.6,33.8,93,30.27,10.0,Calm,Calm,-,N/A,,Overcast,0,2012-12-04 00:10:00
7:51 PM,35.1,33.1,92,30.31,10.0,Calm,Calm,-,N/A,,Overcast,0,2012-12-04 00:51:00
8:51 PM,35.6,33.8,93,30.28,10.0,Calm,Calm,-,N/A,,Overcast,0,2012-12-04 01:51:00
9:51 PM,35.1,33.1,92,30.32,10.0,Calm,Calm,-,N/A,,Overcast,0,2012-12-04 02:51:00
10:51 PM,36.0,33.1,89,30.32,10.0,SSW,3.5,-,N/A,,Overcast,200,2012-12-04 03:51:00
11:51 PM,36.0,34.0,93,30.32,10.0,Calm,Calm,-,N/A,,Overcast,0,2012-12-04 04:51:00